Location: Demmingen
(48.6757°N, 10.4375°E)
Time: 02:07:17
(UTC+00:00)

USA 234 - Pass Details

Date: 23 May 2024
Orbit: 1100 x 1107 km, 123.0° (Epoch: 12 June)

Event Time Altitude Azimuth Distance (km) Brightness Sun altitude
Exits shadow 00:56:33 17° 169° (SSE) 2,447 4.6 -17.1°
Maximum altitude 01:01:01 38° 228° (SW) 1,609 3.7 -16.8°
Drops below altitude 10° 01:07:03 10° 295° (WNW) 2,964 5.5 -16.3°
Sets 01:09:45 0° 304° (WNW) 3,924 6.2 -16.1°
